| time (UTC) | temp F | wind direction | speed MPH | gust MPH | rain 1hr in | rain 24hr in | rain mn in | humidity % | barometer mb |
| 20260906042009 | 55 | 140 | 3.0 | 0.0 | 0.00 | 0.00 | 0.00 | 94 | 1018.0 |
| 20260906040407 | 55 | 140 | 3.0 | 0.0 | 0.00 | 0.00 | 0.00 | 94 | 1018.0 |
| 20260906034908 | 55 | 1.0 | 0.0 | 0.00 | 0.00 | 0.00 | 88 | 1018.0 | |
| 20260906033508 | 55 | 1.0 | 0.0 | 0.00 | 0.00 | 0.00 | 88 | 1018.0 | |
| 20260906032010 | 55 | 2.0 | 0.0 | 0.00 | 0.00 | 0.00 | 88 | 1018.0 | |
| 20260906030508 | 55 | 2.0 | 0.0 | 0.00 | 0.00 | 0.00 | 88 | 1018.0 | |
| 20260906024915 | 57 | 140 | 1.0 | 0.0 | 0.00 | 0.00 | 0.00 | 94 | 1018.0 |
| 20260906023348 | 57 | 140 | 1.0 | 0.0 | 0.00 | 0.00 | 0.00 | 94 | 1018.0 |
| 20260906021854 | 57 | 200 | 3.0 | 0.0 | 0.00 | 0.00 | 0.00 | 88 | 1018.0 |
| 20260906020349 | 57 | 200 | 3.0 | 0.0 | 0.00 | 0.00 | 0.00 | 88 | 1018.0 |
| 20260906014849 | 61 | 50 | 2.0 | 0.0 | 0.00 | 0.00 | 0.00 | 83 | 1018.0 |
| 20260906013509 | 61 | 50 | 2.0 | 0.0 | 0.00 | 0.00 | 0.00 | 83 | 1018.0 |
| 20260906011848 | 61 | 10 | 3.0 | 0.0 | 0.00 | 0.00 | 0.00 | 83 | 1018.0 |
| 20260906010347 | 61 | 10 | 3.0 | 0.0 | 0.00 | 0.00 | 0.00 | 83 | 1018.0 |
| 20260906005008 | 61 | 320 | 5.0 | 0.0 | 0.00 | 0.00 | 0.00 | 83 | 1018.0 |
| 20260906003518 | 61 | 320 | 5.0 | 0.0 | 0.00 | 0.00 | 0.00 | 83 | 1018.0 |
| 20260906002009 | 64 | 350 | 7.0 | 0.0 | 0.00 | 0.00 | 0.00 | 73 | 1018.0 |
| 20260906000458 | 64 | 350 | 7.0 | 0.0 | 0.00 | 0.00 | 0.00 | 73 | 1018.0 |
| 20260905234858 | 64 | 340 | 7.0 | 0.0 | 0.00 | 0.00 | 0.00 | 78 | 1018.0 |
| 20260905233347 | 64 | 340 | 7.0 | 0.0 | 0.00 | 0.00 | 0.00 | 78 | 1018.0 |
| 20260905232010 | 63 | 340 | 6.0 | 0.0 | 0.00 | 0.00 | 0.00 | 77 | 1018.0 |
| 20260905230420 | 63 | 340 | 6.0 | 0.0 | 0.00 | 0.00 | 0.00 | 77 | 1018.0 |
| 20260905225009 | 64 | 350 | 6.0 | 0.0 | 0.00 | 0.00 | 0.00 | 78 | 1018.0 |
| 20260905223401 | 64 | 350 | 6.0 | 0.0 | 0.00 | 0.00 | 0.00 | 78 | 1018.0 |
| 20260905221953 | 64 | 350 | 3.0 | 0.0 | 0.00 | 0.00 | 0.00 | 78 | 1018.0 |
| 20260905220508 | 64 | 350 | 3.0 | 0.0 | 0.00 | 0.00 | 0.00 | 78 | 1018.0 |
| 20260905215007 | 64 | 300 | 6.0 | 0.0 | 0.00 | 0.00 | 0.00 | 78 | 1018.0 |
| 20260905213348 | 64 | 300 | 6.0 | 0.0 | 0.00 | 0.00 | 0.00 | 78 | 1018.0 |
| 20260905211844 | 64 | 320 | 8.0 | 0.0 | 0.00 | 0.00 | 0.00 | 83 | 1018.0 |
| 20260905210347 | 64 | 320 | 8.0 | 0.0 | 0.00 | 0.00 | 0.00 | 83 | 1018.0 |
| 20260905204858 | 64 | 330 | 7.0 | 0.0 | 0.00 | 0.00 | 0.00 | 88 | 1017.0 |
| 20260905203347 | 64 | 330 | 7.0 | 0.0 | 0.00 | 0.00 | 0.00 | 88 | 1017.0 |
| 20260905201847 | 64 | 330 | 9.0 | 0.0 | 0.00 | 0.00 | 0.00 | 83 | 1017.0 |
| 20260905200508 | 64 | 330 | 9.0 | 0.0 | 0.00 | 0.00 | 0.00 | 83 | 1017.0 |
| 20260905195001 | 66 | 360 | 14.0 | 0.0 | 0.00 | 0.00 | 0.00 | 78 | 1017.0 |
| 20260905193348 | 66 | 360 | 14.0 | 0.0 | 0.00 | 0.00 | 0.00 | 78 | 1017.0 |
| 20260905191917 | 66 | 340 | 8.0 | 0.0 | 0.00 | 0.00 | 0.00 | 78 | 1016.0 |
| 20260905190348 | 66 | 340 | 8.0 | 0.0 | 0.00 | 0.00 | 0.00 | 78 | 1016.0 |
| 20260905184845 | 68 | 330 | 9.0 | 0.0 | 0.00 | 0.00 | 0.00 | 73 | 1016.0 |
| 20260905183353 | 68 | 330 | 9.0 | 0.0 | 0.00 | 0.00 | 0.00 | 73 | 1016.0 |
| 20260905181844 | 68 | 320 | 11.0 | 0.0 | 0.00 | 0.00 | 0.00 | 69 | 1016.0 |
| 20260905180344 | 68 | 320 | 11.0 | 0.0 | 0.00 | 0.00 | 0.00 | 69 | 1016.0 |
| 20260905174841 | 72 | 10 | 8.0 | 0.0 | 0.00 | 0.00 | 0.00 | 57 | 1015.0 |
| 20260905173347 | 72 | 10 | 8.0 | 0.0 | 0.00 | 0.00 | 0.00 | 57 | 1015.0 |
| 20260905170348 | 72 | 350 | 17.0 | 0.0 | 0.00 | 0.00 | 0.00 | 57 | 1016.0 |
| 20260905164848 | 73 | 360 | 15.0 | 0.0 | 0.00 | 0.00 | 0.00 | 53 | 1014.0 |
| 20260905163349 | 73 | 360 | 15.0 | 0.0 | 0.00 | 0.00 | 0.00 | 53 | 1014.0 |
| 20260905161846 | 77 | 350 | 17.0 | 0.0 | 0.00 | 0.00 | 0.00 | 51 | 1014.0 |
| 20260905160348 | 77 | 350 | 17.0 | 0.0 | 0.00 | 0.00 | 0.00 | 51 | 1014.0 |
| 20260905153347 | 81 | 350 | 21.0 | 0.0 | 0.00 | 0.00 | 0.00 | 48 | 1013.0 |
| 20260905151848 | 84 | 350 | 25.0 | 0.0 | 0.00 | 0.00 | 0.00 | 45 | 1012.0 |
| 20260905150348 | 84 | 350 | 25.0 | 0.0 | 0.00 | 0.00 | 0.00 | 45 | 1012.0 |
| 20260905144841 | 93 | 270 | 14.0 | 0.0 | 0.00 | 0.00 | 0.00 | 28 | 1011.0 |
| 20260905143347 | 93 | 270 | 14.0 | 0.0 | 0.00 | 0.00 | 0.00 | 28 | 1011.0 |
| 20260905141845 | 93 | 230 | 11.0 | 0.0 | 0.00 | 0.00 | 0.00 | 30 | 1011.0 |
| 20260905140344 | 93 | 230 | 11.0 | 0.0 | 0.00 | 0.00 | 0.00 | 30 | 1011.0 |
| 20260905135006 | 93 | 250 | 14.0 | 0.0 | 0.00 | 0.00 | 0.00 | 28 | 1011.0 |
| 20260905133348 | 93 | 250 | 14.0 | 0.0 | 0.00 | 0.00 | 0.00 | 28 | 1011.0 |
| 20260905131850 | 93 | 200 | 10.0 | 0.0 | 0.00 | 0.00 | 0.00 | 30 | 1012.0 |
| 20260905130409 | 93 | 200 | 10.0 | 0.0 | 0.00 | 0.00 | 0.00 | 30 | 1012.0 |
| 20260905124842 | 91 | 180 | 7.0 | 0.0 | 0.00 | 0.00 | 0.00 | 32 | 1012.0 |
| 20260905123348 | 91 | 180 | 7.0 | 0.0 | 0.00 | 0.00 | 0.00 | 32 | 1012.0 |
| 20260905121915 | 91 | 190 | 14.0 | 0.0 | 0.00 | 0.00 | 0.00 | 32 | 1013.0 |
| 20260905120348 | 91 | 190 | 14.0 | 0.0 | 0.00 | 0.00 | 0.00 | 32 | 1013.0 |
| 20260905114848 | 91 | 230 | 11.0 | 0.0 | 0.00 | 0.00 | 0.00 | 30 | 1013.0 |
| 20260905113347 | 91 | 230 | 11.0 | 0.0 | 0.00 | 0.00 | 0.00 | 30 | 1013.0 |
| 20260905111906 | 91 | 210 | 13.0 | 0.0 | 0.00 | 0.00 | 0.00 | 30 | 1013.0 |
| 20260905110347 | 91 | 210 | 13.0 | 0.0 | 0.00 | 0.00 | 0.00 | 30 | 1013.0 |
| 20260905104848 | 91 | 220 | 13.0 | 0.0 | 0.00 | 0.00 | 0.00 | 30 | 1013.0 |
| 20260905103348 | 91 | 220 | 13.0 | 0.0 | 0.00 | 0.00 | 0.00 | 30 | 1013.0 |
| 20260905101847 | 91 | 240 | 13.0 | 0.0 | 0.00 | 0.00 | 0.00 | 30 | 1014.0 |
| 20260905100348 | 91 | 240 | 13.0 | 0.0 | 0.00 | 0.00 | 0.00 | 30 | 1014.0 |
| 20260905095008 | 88 | 240 | 13.0 | 0.0 | 0.00 | 0.00 | 0.00 | 33 | 1014.0 |
| 20260905093347 | 88 | 240 | 13.0 | 0.0 | 0.00 | 0.00 | 0.00 | 33 | 1014.0 |
| 20260905091848 | 88 | 260 | 15.0 | 0.0 | 0.00 | 0.00 | 0.00 | 33 | 1014.0 |
| 20260905090347 | 88 | 260 | 15.0 | 0.0 | 0.00 | 0.00 | 0.00 | 33 | 1014.0 |
| 20260905084847 | 86 | 250 | 15.0 | 0.0 | 0.00 | 0.00 | 0.00 | 35 | 1015.0 |
| 20260905083348 | 86 | 250 | 15.0 | 0.0 | 0.00 | 0.00 | 0.00 | 35 | 1015.0 |
| 20260905081847 | 84 | 260 | 15.0 | 0.0 | 0.00 | 0.00 | 0.00 | 37 | 1015.0 |
| 20260905080348 | 84 | 260 | 15.0 | 0.0 | 0.00 | 0.00 | 0.00 | 37 | 1015.0 |
| 20260905074848 | 82 | 250 | 17.0 | 0.0 | 0.00 | 0.00 | 0.00 | 40 | 1014.0 |
| 20260905073356 | 82 | 250 | 17.0 | 0.0 | 0.00 | 0.00 | 0.00 | 40 | 1014.0 |
| 20260905071848 | 81 | 250 | 17.0 | 0.0 | 0.00 | 0.00 | 0.00 | 42 | 1015.0 |
| 20260905070347 | 81 | 250 | 17.0 | 0.0 | 0.00 | 0.00 | 0.00 | 42 | 1015.0 |
| 20260905064848 | 81 | 240 | 11.0 | 0.0 | 0.00 | 0.00 | 0.00 | 42 | 1015.0 |
| 20260905063348 | 81 | 240 | 11.0 | 0.0 | 0.00 | 0.00 | 0.00 | 42 | 1015.0 |
| 20260905061848 | 77 | 160 | 7.0 | 0.0 | 0.00 | 0.00 | 0.00 | 44 | 1015.0 |
| 20260905060348 | 77 | 160 | 7.0 | 0.0 | 0.00 | 0.00 | 0.00 | 44 | 1015.0 |
| 20260905054848 | 75 | 6.0 | 0.0 | 0.00 | 0.00 | 0.00 | 47 | 1015.0 | |
| 20260905053348 | 75 | 6.0 | 0.0 | 0.00 | 0.00 | 0.00 | 47 | 1015.0 | |
| 20260905051847 | 66 | 80 | 5.0 | 0.0 | 0.00 | 0.00 | 0.00 | 68 | 1015.0 |
| 20260905050348 | 66 | 80 | 5.0 | 0.0 | 0.00 | 0.00 | 0.00 | 68 | 1015.0 |
| 20260905044848 | 64 | 100 | 3.0 | 0.0 | 0.00 | 0.00 | 0.00 | 73 | 1015.0 |